Powrót do katalogu

NAVSTAR 64

USA 206

AktywnyNawigacjaHEO
NORAD 35752·PAYLOAD·🇺🇸 United States

Wystrzelony Aug 17, 2009 z Cape Canaveral Space Force Station

Loading…

Następne Przeloty (najbliższe 24 godziny)

TLE

ŚwieżeSource: CelesTrak SupGP

Epoka: Sep 16, 2026, 16:44 UTC

1 35752C 09043A   26259.69756944  .00000000  00000+0  00000+0 0  2599
2 35752  56.2638  23.8644 0051442  86.2055 155.3032  2.00577073    14

Śledź NAVSTAR 64 w czasie rzeczywistym z AllMySat

Download on the App Store